Waarnemingen

Advertentie
Mijn weer
Hyeres, Frankrijk (7667): temperatuur & dauwpunt: 18.02.2017 09:00:00 - 24.02.2017 09:00:00 (CET)Hyeres, Frankrijk (7667): temperatuur 5cm: 18.02.2017 09:00:00 - 24.02.2017 09:00:00 (CET)Hyeres, Frankrijk (7667): windsnelheid & windstoten: 18.02.2017 09:00:00 - 24.02.2017 09:00:00 (CET)Hyeres, Frankrijk (7667): windrichting: 18.02.2017 09:00:00 - 24.02.2017 09:00:00 (CET)Hyeres, Frankrijk (7667): luchtdruk: 18.02.2017 09:00:00 - 24.02.2017 09:00:00 (CET)Hyeres, Frankrijk (7667): zicht: 18.02.2017 09:00:00 - 24.02.2017 09:00:00 (CET)Hyeres, Frankrijk (7667): neerslag: 18.02.2017 09:00:00 - 24.02.2017 09:00:00 (CET)
Datum & Tijd tt [°C] td [°C] tt 5cm [°C] ff [km/u] ff [kn] fx [km/u] fx [kn] dd ppp [hPa] vv [km] rr [mm]
24.02.2017 09:00:00 11,9 9,1 11,0 9 5 18 10 ZZW 1009,5 19 0,0
24.02.2017 08:00:00 11,7 9,4 10,3 5 3 16 9 NW 1009,5 18 0,0
24.02.2017 07:00:00 12,6 10,3 11,6 8 4 37 20 WZW 1009,5 13 0,0
24.02.2017 06:00:00 13,1 10,8 12,0 11 6 32 17 WZW 1010,0 18 0,0
24.02.2017 05:00:00 13,2 10,7 11,8 5 3 28 15 WZW 1010,7 36 0,0
24.02.2017 04:00:00 12,8 11,4 10,2 13 7 27 15 ZW 1011,3 19 0,0
24.02.2017 03:00:00 12,9 10,8 10,1 4 2 22 12 WZW 1011,1 20 0,0
24.02.2017 02:00:00 11,2 10,3 9,4 4 2 9 5 W 1012,0 16 0,0
24.02.2017 01:00:00 11,6 10,2 8,6 0 0 6 3 N 1012,6 13 0,0
24.02.2017 00:00:00 12,7 10,9 9,0 0 0 9 5 N 1013,1 19 0,0
23.02.2017 23:00:00 11,3 10,0 - 0 0 4 2 N 1013,4 10 0,0
23.02.2017 22:00:00 11,4 9,8 8,0 0 0 3 2 N 1013,7 35 0,0
23.02.2017 21:00:00 12,0 10,1 8,6 0 0 8 4 N 1013,9 34 0,0
23.02.2017 20:00:00 12,3 10,7 8,8 3 1 9 5 N 1014,2 19 0,0
23.02.2017 19:00:00 12,9 11,1 8,8 2 1 5 3 ZW 1014,0 20 0,0
23.02.2017 18:00:00 13,5 11,0 11,2 2 1 14 8 W 1014,0 20 0,0
23.02.2017 17:00:00 14,3 11,1 14,3 5 3 10 6 ZZW 1014,3 20 0,0
23.02.2017 16:00:00 14,2 11,0 15,2 9 5 18 10 OZO 1014,9 19 0,0
23.02.2017 15:00:00 15,1 11,3 19,0 12 6 18 10 OZO 1015,2 18 0,0
23.02.2017 14:00:00 14,4 10,6 19,2 12 6 18 10 OZO 1016,1 19 0,0
23.02.2017 13:00:00 14,3 10,5 18,6 11 6 18 10 OZO 1017,1 20 0,0
23.02.2017 12:00:00 14,3 10,9 16,7 8 4 16 9 O 1018,0 20 0,0
23.02.2017 11:00:00 13,8 10,6 15,0 4 2 13 7 NNO 1018,2 18 0,0
23.02.2017 10:00:00 11,7 9,4 12,0 7 4 34 19 NNW 1018,4 13 0,0
23.02.2017 09:00:00 10,4 8,7 8,3 13 7 17 9 NW 1018,2 10 0,0
23.02.2017 08:00:00 7,7 7,1 2,7 13 7 15 8 NNW 1018,1 12 0,0
23.02.2017 07:00:00 6,9 5,8 4,2 8 4 16 9 NNW 1017,6 11 0,0
23.02.2017 06:00:00 8,5 7,6 6,7 12 7 15 8 NNW 1017,7 12 0,0
23.02.2017 05:00:00 7,0 6,1 6,6 9 5 14 7 N 1017,8 9 0,0
23.02.2017 04:00:00 7,1 6,5 2,5 8 5 13 7 NNW 1017,8 13 0,0
23.02.2017 03:00:00 4,8 4,1 2,5 8 4 11 6 N 1018,2 10 0,0
23.02.2017 02:00:00 4,7 3,8 2,6 8 5 11 6 N 1018,7 11 0,2
23.02.2017 01:00:00 5,1 4,4 3,0 5 3 9 5 N 1019,1 8 0,0
23.02.2017 00:00:00 5,5 4,6 2,8 6 4 10 5 NNW 1019,0 8 0,0
22.02.2017 23:00:00 6,1 5,4 3,0 7 4 9 5 NNW 1019,1 8 0,0
22.02.2017 22:00:00 6,6 5,4 3,7 6 3 11 6 N 1019,2 7 0,0
22.02.2017 21:00:00 7,9 6,5 4,0 6 4 16 9 NNW 1019,2 8 0,0
22.02.2017 20:00:00 8,7 7,3 4,8 6 3 7 4 N 1019,2 9 0,0
22.02.2017 19:00:00 11,3 8,7 6,2 2 1 7 4 ZO 1019,1 24 0,0
22.02.2017 18:00:00 12,8 9,1 11,6 5 3 14 7 O 1018,7 40 0,0
22.02.2017 17:00:00 14,2 8,8 17,7 9 5 17 9 ZZO 1018,7 42 0,0
22.02.2017 16:00:00 14,5 9,5 18,6 10 5 17 9 ZW 1018,9 40 0,0
22.02.2017 15:00:00 14,8 9,4 19,3 7 4 19 10 ZZW 1019,0 19 0,0
22.02.2017 14:00:00 14,7 9,1 20,1 11 6 19 10 ZZW 1019,5 20 0,0
22.02.2017 13:00:00 13,9 9,1 16,3 10 5 18 10 ZZW 1020,1 19 0,0
22.02.2017 12:00:00 13,6 8,6 16,3 10 5 15 8 ZZW 1020,4 19 0,0
22.02.2017 11:00:00 13,6 8,8 17,3 7 4 20 11 ZW 1020,3 20 0,0
22.02.2017 10:00:00 11,7 8,2 11,9 10 5 44 24 NW 1020,3 19 0,0
22.02.2017 09:00:00 9,4 7,5 7,0 14 7 19 10 NW 1020,1 16 0,0
22.02.2017 08:00:00 7,2 6,3 4,6 10 5 16 9 NNW 1020,0 14 0,0
22.02.2017 07:00:00 6,8 5,7 4,4 10 6 37 20 NNW 1019,6 18 0,0
22.02.2017 06:00:00 7,6 6,7 5,1 9 5 19 10 WNW 1019,7 15 0,0
22.02.2017 05:00:00 7,2 6,5 5,4 13 7 17 9 NW 1019,6 13 0,0
22.02.2017 04:00:00 7,3 6,4 5,5 10 6 19 10 NNW 1019,7 9 0,0
22.02.2017 03:00:00 7,3 6,6 4,4 10 5 16 9 NNW 1019,9 10 0,0
22.02.2017 02:00:00 6,5 5,4 3,9 10 5 13 7 NNW 1020,3 10 0,0
22.02.2017 01:00:00 5,7 4,8 3,0 7 4 11 6 N 1020,1 11 0,0
22.02.2017 00:00:00 6,0 5,1 3,1 9 5 11 6 NNW 1020,1 13 0,0
21.02.2017 23:00:00 6,1 4,9 3,8 7 4 10 5 N 1019,8 9 0,0
21.02.2017 22:00:00 7,5 6,1 4,7 9 5 22 12 N 1019,8 11 0,0
21.02.2017 21:00:00 8,4 6,9 4,1 4 2 11 6 NNW 1019,5 10 0,0
21.02.2017 20:00:00 9,0 7,0 5,8 6 3 15 8 NNW 1019,2 14 0,0
21.02.2017 19:00:00 10,0 7,4 6,6 7 4 11 6 NNO 1019,0 19 0,0
21.02.2017 18:00:00 12,6 7,7 10,3 5 3 17 9 OZO 1018,9 36 0,0
21.02.2017 17:00:00 14,3 7,8 15,8 11 6 17 9 Z 1019,1 37 0,0
21.02.2017 16:00:00 15,2 7,7 18,8 13 7 23 12 Z 1019,0 20 0,0
21.02.2017 15:00:00 14,8 7,6 18,0 17 9 24 13 ZW 1019,2 20 0,0
21.02.2017 14:00:00 14,4 9,0 18,7 19 10 25 14 ZW 1019,6 20 0,0
21.02.2017 13:00:00 14,5 9,7 18,6 19 11 27 14 ZW 1020,5 19 0,0
21.02.2017 12:00:00 14,3 9,1 18,9 17 9 23 12 ZW 1021,4 20 0,0
21.02.2017 11:00:00 14,2 8,8 19,5 9 5 22 12 ZZW 1021,5 20 0,0
21.02.2017 10:00:00 12,5 8,2 14,2 8 4 35 19 NNW 1021,9 45 0,0
21.02.2017 09:00:00 9,6 7,2 6,3 13 7 18 10 NNW 1022,0 19 0,0
21.02.2017 08:00:00 6,4 5,0 2,4 11 6 16 9 NNW 1021,9 20 0,0
21.02.2017 07:00:00 5,3 4,4 2,5 13 7 15 8 NNW 1021,7 26 0,0
21.02.2017 06:00:00 5,7 4,7 1,6 13 7 15 8 NW 1021,9 30 0,0
21.02.2017 05:00:00 4,2 3,0 1,8 9 5 16 9 N 1022,1 20 0,0
21.02.2017 04:00:00 4,4 3,1 2,1 8 4 13 7 NNW 1022,4 20 0,0
21.02.2017 03:00:00 5,5 4,3 2,5 11 6 14 7 NNW 1022,5 25 0,0
21.02.2017 02:00:00 4,6 3,6 2,1 9 5 11 6 NNW 1022,9 19 0,0
21.02.2017 01:00:00 4,7 3,2 2,6 5 3 11 6 N 1023,2 17 0,0
21.02.2017 00:00:00 5,9 4,4 2,5 9 5 16 9 NW 1023,3 19 0,0
20.02.2017 23:00:00 5,4 3,6 2,3 6 3 11 6 N 1023,3 15 0,0
20.02.2017 22:00:00 6,6 4,1 2,4 5 3 11 6 NW 1023,1 19 0,0
20.02.2017 21:00:00 6,3 3,6 3,0 7 4 17 9 N 1023,1 14 0,0
20.02.2017 20:00:00 8,3 5,4 4,1 3 2 6 4 NO 1022,9 11 0,0
20.02.2017 19:00:00 12,0 6,3 8,1 6 3 12 6 ZW 1022,8 39 0,0
20.02.2017 18:00:00 13,3 5,9 11,5 8 4 14 8 ZZW 1022,3 54 0,0
20.02.2017 17:00:00 14,7 4,9 16,0 11 6 18 10 ZW 1022,2 56 0,0
20.02.2017 16:00:00 15,2 6,2 16,4 11 6 18 10 WZW 1022,2 55 0,0
20.02.2017 15:00:00 15,4 7,2 19,6 12 6 24 13 ZZW 1022,2 60 0,0
20.02.2017 14:00:00 15,6 8,3 20,5 11 6 19 11 ZZW 1022,2 60 0,0
20.02.2017 13:00:00 15,9 6,6 20,0 10 6 18 10 OZO 1022,5 60 -
20.02.2017 12:00:00 16,3 7,0 20,5 6 4 27 14 NO 1022,7 20 0,0
20.02.2017 11:00:00 14,8 6,6 16,8 15 8 22 12 NNW 1022,8 57 0,0
20.02.2017 10:00:00 12,7 4,6 13,7 14 8 26 14 NNW 1022,5 46 0,0
20.02.2017 09:00:00 9,7 2,8 6,9 10 5 23 12 NW 1022,1 42 0,0
20.02.2017 08:00:00 7,3 1,8 1,6 13 7 21 12 NW 1021,6 56 0,0
20.02.2017 07:00:00 4,6 2,3 0,4 18 10 26 14 NW 1021,2 30 0,0
20.02.2017 06:00:00 4,6 2,1 -0,3 11 6 15 8 NNW 1021,1 35 0,0
20.02.2017 05:00:00 3,4 2,1 -0,5 8 4 14 8 NNW 1021,0 28 0,0
20.02.2017 04:00:00 4,6 3,4 0,9 10 5 14 8 NNW 1020,9 20 0,0
20.02.2017 03:00:00 5,3 3,6 0,9 5 3 7 4 WNW 1021,0 16 0,0
20.02.2017 02:00:00 7,8 5,6 1,9 3 2 11 6 NNO 1021,3 16 0,0
20.02.2017 01:00:00 11,3 6,6 8,6 10 5 30 16 W 1021,4 29 0,0
20.02.2017 00:00:00 12,3 8,0 - 24 13 46 25 W 1021,6 29 0,0
19.02.2017 23:00:00 12,5 6,3 10,0 19 10 36 20 W 1022,1 42 0,0
19.02.2017 22:00:00 12,5 3,4 9,8 17 9 26 14 W 1022,4 54 0,0
19.02.2017 21:00:00 12,2 3,4 10,1 16 8 39 21 W 1022,6 52 0,0
19.02.2017 20:00:00 12,6 6,0 10,7 23 12 38 20 W 1022,6 38 0,0
19.02.2017 19:00:00 12,7 6,3 11,1 22 12 43 23 W 1022,7 46 0,0
19.02.2017 18:00:00 13,5 3,0 12,0 28 15 44 24 W 1022,5 60 0,0
19.02.2017 17:00:00 14,9 1,7 15,3 29 16 44 24 WZW 1022,5 60 0,0
19.02.2017 16:00:00 15,0 7,5 16,8 28 15 40 22 ZW 1022,9 20 0,0
19.02.2017 15:00:00 14,6 8,5 17,4 28 15 39 21 WZW 1023,6 60 0,0
19.02.2017 14:00:00 15,0 9,1 18,6 21 12 29 16 ZW 1024,5 20 0,0
19.02.2017 13:00:00 14,9 8,6 19,7 13 7 22 12 ZW 1025,3 60 0,0
19.02.2017 12:00:00 15,0 8,7 19,8 8 4 12 6 Z 1026,2 20 0,0
19.02.2017 11:00:00 14,8 8,3 19,7 4 2 11 6 OZO 1026,4 20 0,0
19.02.2017 10:00:00 13,2 5,6 15,0 6 3 14 8 NNW 1026,4 47 0,0
19.02.2017 09:00:00 10,5 5,3 8,5 11 6 16 9 NW 1026,3 39 0,0
19.02.2017 08:00:00 6,8 3,2 1,5 13 7 18 10 NNW 1025,7 40 0,0
19.02.2017 07:00:00 4,5 2,2 1,6 7 4 15 8 N 1025,3 31 0,0
19.02.2017 06:00:00 4,8 2,3 1,3 12 7 15 8 NW 1024,9 42 0,0
19.02.2017 05:00:00 6,0 2,6 2,8 9 5 17 9 NNW 1024,6 37 0,0
19.02.2017 04:00:00 7,2 4,2 4,4 14 7 19 10 NW 1024,4 36 0,0
19.02.2017 03:00:00 7,0 4,5 4,4 12 6 18 10 NW 1024,3 30 0,0
19.02.2017 02:00:00 7,6 5,4 4,6 14 8 17 9 NNW 1024,2 24 0,0
19.02.2017 01:00:00 7,6 5,9 5,0 12 6 16 9 NW 1024,0 18 0,0
19.02.2017 00:00:00 7,6 5,9 3,5 11 6 16 8 NW 1023,9 16 0,0
18.02.2017 23:00:00 6,9 5,2 3,3 4 2 13 7 N 1023,8 12 0,0
18.02.2017 22:00:00 8,1 6,4 3,7 6 4 11 6 NNW 1023,5 16 0,0
18.02.2017 21:00:00 9,2 7,1 4,5 8 4 11 6 N 1023,2 20 0,0
18.02.2017 20:00:00 9,8 7,2 5,5 7 4 16 8 N 1022,8 29 0,0
18.02.2017 19:00:00 11,5 8,0 9,1 11 6 26 14 NNO 1022,4 32 0,0
18.02.2017 18:00:00 13,1 9,3 11,7 9 5 27 15 ONO 1021,8 30 0,0
18.02.2017 17:00:00 14,1 9,7 15,3 20 11 32 17 O 1021,3 20 0,0
18.02.2017 16:00:00 14,7 10,3 17,0 23 12 40 22 O 1021,3 19 0,0
18.02.2017 15:00:00 14,8 9,8 17,5 29 16 40 21 O 1021,5 19 0,0
18.02.2017 14:00:00 15,3 9,4 18,3 26 14 42 23 O 1021,8 18 0,0
18.02.2017 13:00:00 15,7 8,7 18,1 29 16 44 24 O 1022,0 20 0,0
18.02.2017 12:00:00 15,4 9,1 17,5 29 16 45 25 O 1022,4 19 0,0
18.02.2017 11:00:00 15,1 9,7 14,6 26 14 36 20 O 1022,2 19 0,0
18.02.2017 10:00:00 13,9 9,5 12,0 16 8 23 12 NO 1021,9 19 0,0
18.02.2017 09:00:00 11,3 8,3 7,1 13 7 38 21 N 1021,7 18 0,0

tt = temperatuur
td = dauwpunt
tt 5cm = temperatuur 5cm
ff = windsnelheid
fx = windstoten
dd = windrichting
ppp = luchtdruk
vv = zicht
rr = neerslag

Weerstations in de omgeving